User: anonymous   Login
Location: Unspecified
(0.0000°N, 0.0000°E)
Time: 06:40:31
(UTC+00:00)
Language:

USA 72 - Orbit

View from above orbital plane
View from above orbital plane
View from above satellite
View from above satellite

Ground track
Ground track

The orbit data is extracted from the following two-line orbital elements,

1 21775U 91076A   20041.16635936 0.00000000  00000-0  00000-0 0    04
2 21775  63.3572  85.6016 3369190 270.0575  52.0874  5.53394512    06
Epoch (UTC): 10 February 2020 03:59:33
Eccentricity: 0.3369190
inclination: 63.3572°
perigee height: 2574 km
apogee height: 11672 km
right ascension of ascending node: 85.6016°
argument of perigee: 270.0575°
revolutions per day: 5.53394512
mean anomaly at epoch: 52.0874°
orbit number at epoch: 0

The dashed part of the orbit path shows where the satellite is in the earth's shadow,  

DLR